User: anonymous   Login
Location: Unspecified
(0.0000°N, 0.0000°E)
Time: 00:46:27
(UTC+00:00)
Language:

TBA - TO BE ASSIGNED - Orbit

View from above orbital plane
View from above orbital plane
View from above satellite
View from above satellite

Ground track
Ground track

The orbit is defined by the following mean orbital elements,

1 69045U          26145.57892132 +.00000000 +00000-0 +10149-2 0 00009
2 69045  97.2849   0.3840 0001323  72.5308 287.6102 15.75223963    03
Epoch (UTC): 25 May 2026 13:53:38
Eccentricity: 0.0001323
inclination: 97.2849°
perigee height: 343 km
apogee height: 345 km
right ascension of ascending node: 0.3840°
argument of perigee: 72.5308°
revolutions per day: 15.75223963
mean anomaly at epoch: 287.6102°

The dashed part of the orbit path shows where the satellite is in the earth's shadow,  

DLR